{"data":{"norad_id":67534,"intl_designator":"2026-014C","name":"STARLINK-36576","alt_names":[],"object_type":"PAYLOAD","status":"ACTIVE","operator":null,"country":"US","launch_date":"2026-01-22","launch_site_code":"AFWTR","launch_vehicle":null,"mission":null,"orbit_class":"UNKNOWN","rcs_meters":null,"size_class":null,"mass_kg":null,"dimensions":null,"purposes":["comms"],"wikipedia_slug":null,"has_3d_model":false,"image_url":null,"decayed_at":null,"tle_current":{"epoch":"2026-09-19T10:30:17.313696Z","epoch_age_seconds":164080,"freshness":"FRESH","line1":"1 67534U 26014C   26262.43770039  .00013613  00000+0  42304-3 0  9998","line2":"2 67534  97.2870 147.7912 0001359  94.1470 265.9928 15.33459787 38479","mean_motion":15.33459787,"eccentricity":0.0001359,"inclination_deg":97.287,"raan_deg":147.7912,"arg_perigee_deg":94.147,"mean_anomaly_deg":265.9928,"bstar":0.00042304,"rev_number":3847,"period_min":93.905299128656,"perigee_km":464.56912896647,"apogee_km":466.42922927995,"semimajor_km":6843.6361791232,"source":"CELESTRAK","updated_at":"2026-09-20T09:00:43.565946Z"}}}